Volver al catálogo

THORAD AGENA D DEB

ActivoSSO
NORAD 4756·DEBRIS·🇺🇸 United States

Lanzado Apr 8, 1970 desde Vandenberg Space Force Base

Loading…

Próximos Pases

TLE

Source: Space-Track
1  4756U 70025DE  26225.06836720  .00000020  00000-0  10640-3 0  9991
2  4756 100.2338 266.2073 0028083  44.4167 315.9210 13.49427127769782

Sigue THORAD AGENA D DEB en tiempo real con AllMySat

Download on the App Store